{"data":{"norad_id":49135,"epoch":"2026-05-25T04:41:21.239808Z","epoch_age_seconds":58894,"freshness":"FRESH","line1":"1 49135U 21082F   26145.19538472  .00000240  00000+0  27871-4 0  9996","line2":"2 49135  70.0004  61.5401 0002792 269.0721  91.0119 14.98331369258439","mean_motion":14.98331369,"eccentricity":0.0002792,"inclination_deg":70.0004,"raan_deg":61.5401,"arg_perigee_deg":269.0721,"mean_anomaly_deg":91.0119,"bstar":2.7871e-5,"rev_number":25843,"period_min":96.106911314356,"perigee_km":570.11116475492,"apogee_km":573.99215010122,"semimajor_km":6950.1886574281,"source":"CELESTRAK","updated_at":"2026-05-25T13:38:16.765400Z"}}